Theta_e
303 303 303 302 302 302 303 302 302 303 304 303 305 306 306 307 309 309 319 320 319 324 326 322 321 325 326 326 329 326 328 325 326 329 327 328 328 331 330 333 331 330 331 331 330 337 339 332 334 339 334 328 327 327
304 303 302 302 302 302 302 302 302 303 304 303 304 305 305 307 308 309 316 318 319 322 325 321 319 319 321 322 323 323 326 332 329 333 335 332 332 331 332 331 330 331 331 335 333 334 331 327 328 326 324 326 326 325
303 302 302 302 302 301 301 302 303 303 304 304 304 305 305 306 308 307 311 318 319 325 324 323 321 319 319 319 320 325 328 326 331 327 329 326 327 325 327 326 327 329 325 328 327 329 327 325 325 325 325 325 324 324
302 302 301 301 301 301 302 302 302 303 304 304 304 305 305 306 308 308 310 318 319 323 326 324 320 319 320 319 320 321 323 323 322 323 325 325 326 326 326 325 325 324 324 328 327 327 326 327 325 323 323 323 323 323
301 301 301 301 301 302 302 302 302 302 303 304 304 305 306 307 308 309 314 318 319 320 325 326 321 320 319 319 320 320 321 322 325 327 326 326 325 325 325 324 323 322 324 324 328 325 325 325 322 321 322 322 322 321
301 301 301 301 301 301 302 302 302 302 303 303 304 305 306 308 308 313 323 319 315 316 323 328 322 322 320 320 321 322 323 324 324 325 325 324 323 324 324 325 324 321 324 322 324 322 322 322 321 320 320 321 320 320
301 301 301 301 302 303 302 302 302 303 303 304 305 306 308 309 308 314 319 315 311 315 323 326 326 322 321 322 323 323 323 323 323 324 324 323 322 322 323 324 323 323 323 324 323 322 323 321 320 319 320 320 320 321
301 301 301 301 302 302 302 303 303 304 305 305 307 309 310 310 311 316 317 314 313 316 320 326 327 323 321 323 324 323 324 324 325 323 323 322 322 322 323 323 324 325 324 323 322 320 319 318 318 320 319 318 318 318
301 301 301 302 302 302 303 304 306 307 307 308 310 310 312 314 318 319 314 313 314 318 323 326 328 327 320 323 326 324 325 324 324 325 324 324 324 323 325 326 325 324 323 323 321 320 319 318 318 319 318 318 318 318
301 301 301 302 302 302 303 305 308 308 310 313 313 316 320 319 316 316 318 319 320 320 320 322 325 326 322 323 325 326 325 325 324 324 323 324 323 322 322 321 322 321 321 319 319 320 320 320 320 319 319 318 318 317
301 301 301 302 302 303 304 308 309 309 314 315 317 319 317 316 317 320 321 322 321 322 321 321 324 326 323 326 325 325 326 325 324 323 324 323 324 324 321 321 318 318 318 317 317 316 318 318 318 316 315 315 315 316
301 301 301 302 302 304 307 309 308 309 312 311 309 311 314 318 321 321 322 323 322 324 324 324 326 326 326 324 324 326 324 325 326 324 324 323 324 323 321 319 321 319 319 319 318 318 319 319 318 317 316 316 316 317
301 301 302 302 302 306 308 309 308 308 309 313 313 318 320 320 317 320 320 323 326 325 325 326 326 324 326 324 325 326 325 325 323 325 324 327 328 326 324 322 322 320 319 318 318 318 319 319 318 316 316 316 317 317
301 301 302 302 305 306 307 309 309 310 310 316 318 314 319 319 320 320 321 324 325 326 325 327 329 328 326 324 325 325 325 324 325 326 324 325 326 326 325 324 323 322 320 319 319 319 319 319 318 317 317 316 317 317
301 301 301 304 306 306 306 307 309 308 313 316 318 318 319 318 319 319 321 324 323 321 325 327 326 326 325 324 326 324 325 326 326 327 323 320 320 320 321 322 322 321 320 320 319 320 320 319 319 318 317 318 318 318
300 303 306 306 306 306 305 306 309 310 313 317 317 319 319 319 320 322 322 323 323 322 324 326 325 327 326 326 326 326 325 326 326 324 319 319 318 319 320 322 322 320 320 320 320 319 319 319 318 318 318 318 319 318
301 306 307 307 306 305 308 309 312 314 316 317 318 318 319 319 320 322 323 325 324 325 327 327 325 326 326 326 326 326 325 324 319 320 320 317 318 319 321 321 322 321 320 320 319 318 318 317 319 319 318 319 317 317
304 307 307 306 305 307 310 309 313 315 317 317 318 318 319 319 319 321 319 321 323 326 326 325 325 325 324 323 324 326 325 324 321 320 321 321 322 321 320 321 321 320 320 319 317 318 319 317 319 319 318 317 317 316
303 303 303 304 305 305 311 313 313 316 316 317 319 320 320 320 321 322 321 323 325 323 325 322 322 325 325 325 324 324 324 323 323 321 320 320 320 321 319 319 319 319 319 318 318 316 317 316 317 318 318 317 317 316
304 306 306 307 305 308 311 315 315 317 318 320 319 320 321 322 322 324 323 323 324 322 322 324 324 324 324 325 324 323 322 322 321 319 319 320 318 318 319 317 318 317 317 318 315 314 314 315 316 318 318 318 317 317
307 308 307 306 306 307 310 313 315 317 317 319 319 321 323 322 323 325 322 322 325 324 326 326 325 324 322 321 320 319 321 321 321 321 319 319 317 318 316 315 316 315 316 314 314 314 315 316 316 316 316 318 317 317
308 307 309 308 310 311 312 312 315 316 317 318 319 321 323 325 327 326 325 323 325 323 317 317 320 324 322 324 322 319 318 318 317 317 315 317 320 317 319 316 315 315 316 314 315 315 314 315 314 315 317 317 317 316
306 307 308 310 311 310 311 313 317 318 320 323 326 327 328 329 328 325 329 328 327 319 315 315 319 320 321 318 318 320 318 317 319 313 315 317 317 317 317 317 314 316 316 314 314 315 315 313 313 313 313 317 317 317
307 308 310 312 311 313 316 320 319 321 322 323 324 326 326 328 327 327 326 326 324 322 323 324 319 320 320 321 321 321 318 314 312 310 314 315 316 316 316 316 314 314 315 316 315 315 315 314 313 313 313 311 312 316
308 308 310 309 314 317 319 319 322 322 323 324 323 327 329 328 327 327 325 325 324 323 321 321 320 319 319 319 315 318 317 316 317 316 314 315 315 315 314 315 314 314 314 314 314 314 315 314 313 313 313 310 310 312
308 312 311 316 317 320 321 321 322 324 325 323 325 326 325 327 326 325 325 325 323 322 319 319 320 319 320 318 319 319 317 317 316 318 317 315 314 315 316 315 315 313 312 311 312 312 313 313 313 313 311 310 310 311
312 314 316 316 317 318 319 320 320 324 325 325 326 326 325 328 327 327 325 324 323 319 317 315 316 318 318 317 316 314 314 314 314 316 316 317 315 314 314 314 313 310 309 310 310 311 310 310 311 310 310 311 310 310
312 315 317 318 318 318 319 319 320 321 324 322 322 325 325 325 326 324 324 321 318 317 316 315 315 316 316 315 315 316 315 314 314 315 316 317 316 315 313 309 307 309 309 308 309 310 311 310 310 311 311 311 311 311
314 315 316 318 319 319 320 320 319 320 323 323 326 325 326 325 326 325 324 322 318 316 316 317 316 316 316 314 315 315 316 316 317 320 321 319 317 315 315 313 311 310 310 310 310 311 311 310 309 310 310 310 311 312
315 315 316 317 318 319 319 320 320 321 323 324 324 325 326 327 323 319 320 322 319 317 316 316 316 316 316 316 316 316 316 316 316 317 317 317 315 314 314 314 313 313 313 312 312 312 312 311 310 311 311 312 312 312
316 316 317 317 318 319 319 319 319 320 320 320 321 320 321 325 322 320 321 323 323 319 316 317 317 317 317 317 317 317 318 317 317 317 316 314 315 314 314 313 312 312 312 312 312 313 313 312 311 311 312 313 313 312
316 317 318 319 320 320 320 320 319 320 319 320 320 320 320 321 326 324 320 322 324 321 317 317 317 317 317 316 316 314 315 317 317 317 316 315 316 315 315 314 314 312 312 312 312 313 313 313 313 313 313 313 313 313
319 318 319 318 318 319 319 319 320 321 321 321 321 321 322 321 323 326 323 322 322 322 320 317 316 316 316 317 316 315 315 316 315 314 314 313 312 311 312 313 314 313 314 313 312 313 312 313 313 313 313 312 312 313
Wind_Speed
15 15 16 16 17 19 20 21 20 24 24 25 26 27 26 23 22 25 9 9 10 4 4 6 7 6 6 5 4 5 4 2 3 1 2 3 2 3 4 5 3 3 2 1 3 4 2 7 7 6 2 8 8 10
14 14 15 16 17 18 19 19 21 22 24 24 25 26 24 23 20 19 7 13 19 5 4 13 4 4 4 5 3 5 1 5 3 3 4 4 4 5 6 3 7 4 3 1 4 2 2 7 8 7 8 5 7 8
13 14 13 15 16 17 17 18 18 20 22 23 23 25 24 22 19 19 13 18 16 3 6 8 5 2 0 2 5 2 3 5 4 2 2 2 2 3 3 4 6 3 8 3 6 6 6 9 9 9 8 6 6 6
13 13 14 15 17 15 17 17 17 18 19 22 22 23 22 21 17 16 11 12 14 6 3 3 7 3 2 3 3 7 4 2 1 1 2 2 1 3 2 2 2 2 5 5 2 10 6 9 8 7 7 8 9 8
13 13 14 15 15 16 18 17 18 18 19 20 20 22 22 20 17 15 9 8 8 5 3 5 6 6 6 6 1 2 5 2 2 1 2 2 2 3 3 4 3 4 3 4 2 4 4 6 9 10 7 6 6 7
13 15 14 14 17 16 17 18 20 21 21 20 20 20 19 18 16 7 2 7 11 10 3 3 3 4 9 4 4 2 3 2 2 1 2 3 4 2 1 2 3 7 10 8 3 7 6 6 8 9 8 8 6 7
13 14 14 15 15 16 17 19 21 21 21 19 19 19 16 14 11 4 3 6 11 11 2 4 2 3 10 5 3 3 7 3 2 2 1 2 3 2 2 3 3 7 8 6 6 6 5 4 6 7 8 10 15 15
13 14 15 16 16 17 19 20 22 22 20 19 18 17 13 8 7 3 1 4 6 5 4 3 2 3 9 3 3 3 4 4 3 3 0 2 4 2 3 4 9 8 7 6 6 6 5 7 8 6 7 12 12 12
13 14 15 15 16 18 20 21 21 21 19 18 16 9 3 2 3 0 4 3 1 3 3 3 0 1 5 3 1 1 1 2 1 2 4 2 4 3 1 8 7 4 4 3 6 6 6 7 8 8 8 9 11 14
12 13 13 14 16 18 20 20 21 21 17 12 6 3 1 2 5 5 2 2 2 3 3 3 3 2 4 3 3 3 1 2 2 4 3 4 4 4 10 8 7 7 7 2 3 5 4 5 6 9 12 13 14 14
11 12 12 14 16 18 18 17 20 18 8 6 3 2 5 6 3 3 2 3 3 3 3 3 4 3 4 3 2 1 1 2 2 4 4 3 1 4 8 8 5 4 6 7 5 5 7 6 6 7 11 16 20 22
10 11 12 14 17 19 13 16 18 9 4 8 13 10 6 3 2 3 3 3 4 3 4 3 4 2 2 2 1 2 1 1 4 3 1 2 2 7 7 7 8 7 6 7 10 6 6 4 6 9 12 17 22 26
11 12 13 14 16 13 11 17 14 9 10 5 4 3 2 2 2 4 4 3 3 3 3 2 1 2 2 1 1 2 1 4 2 3 2 1 5 6 6 5 6 6 6 7 7 10 9 9 9 11 15 22 26 28
12 12 13 14 12 12 11 13 12 8 3 2 3 4 3 4 4 4 4 3 3 4 4 2 2 2 2 2 2 3 3 2 2 3 1 7 5 5 4 4 4 5 4 4 5 8 10 9 11 18 20 23 24 26
13 14 14 11 7 12 13 13 12 7 3 3 3 3 5 6 4 6 3 3 3 4 1 3 3 3 1 2 3 2 3 3 3 1 2 2 4 7 12 12 7 4 3 4 7 6 10 13 14 19 24 24 24 26
14 12 2 4 10 16 15 13 8 2 4 3 5 6 7 6 6 5 7 5 2 3 2 3 2 2 5 3 4 5 3 2 3 3 1 4 3 5 7 9 7 4 4 6 7 11 14 15 14 18 22 19 20 23
11 2 4 9 15 18 10 3 3 4 4 4 5 7 9 8 7 2 3 2 8 2 2 3 3 5 2 2 2 3 2 2 3 4 4 9 7 6 5 2 4 5 5 6 10 14 17 19 18 13 10 16 20 21
4 5 8 14 19 13 3 5 4 4 5 5 6 9 8 6 7 6 8 6 3 2 3 3 3 2 3 3 1 2 3 3 5 7 6 4 3 4 3 3 4 4 6 9 10 14 12 10 8 7 12 14 14 20
10 14 13 13 10 4 4 3 5 4 5 7 8 8 9 6 3 3 4 5 2 7 3 3 3 3 3 2 2 3 3 2 4 4 4 6 5 4 1 2 3 5 6 8 8 6 8 11 8 10 12 12 10 16
8 9 6 7 3 3 3 3 4 4 4 4 7 8 7 4 2 3 5 5 3 3 4 2 5 3 2 2 3 3 3 2 1 1 2 3 5 5 6 2 4 8 11 9 3 6 8 9 8 8 10 8 8 9
6 3 5 1 4 7 4 3 4 4 5 5 7 7 4 4 5 1 2 3 2 3 3 4 5 3 3 2 8 3 2 6 3 1 2 2 7 9 6 2 4 6 8 8 2 4 7 9 4 2 6 7 5 6
3 4 3 3 4 3 4 8 4 6 4 6 8 5 5 5 4 2 5 2 3 2 3 0 6 3 3 4 4 6 6 5 1 2 3 3 1 2 4 4 3 8 3 6 5 3 13 6 12 8 4 2 4 4
6 3 4 4 3 3 6 7 4 4 3 3 2 2 2 2 2 2 1 4 2 3 5 7 11 9 9 10 10 10 5 1 4 9 11 10 12 14 11 12 10 1 3 6 6 10 9 1 4 5 12 8 6 3
4 3 3 3 5 4 4 4 4 3 3 3 3 3 3 3 4 3 3 5 5 4 7 7 9 5 6 7 4 5 10 5 5 3 7 10 13 16 3 2 5 5 6 5 3 5 13 4 9 9 7 10 9 3
2 4 4 5 4 4 4 3 4 3 6 3 4 4 3 4 2 4 2 3 9 8 7 9 8 7 3 4 5 12 17 11 7 5 14 18 17 6 6 7 6 2 6 12 9 13 8 7 2 5 8 11 16 12
4 5 6 6 6 5 4 2 3 2 1 2 2 2 5 6 4 2 1 2 9 8 7 6 5 5 4 8 4 5 12 20 16 12 9 15 9 8 3 3 3 2 7 5 12 8 4 6 8 3 10 10 13 13
4 6 7 6 4 4 3 4 4 3 2 1 2 3 5 2 5 4 2 2 6 11 13 8 8 7 6 10 12 8 7 10 7 3 7 5 2 6 7 9 6 6 7 6 11 12 14 15 13 10 8 7 8 8
6 5 11 9 9 7 11 9 10 8 3 1 1 4 3 1 3 2 2 7 16 14 9 8 9 7 10 11 10 8 12 10 4 4 7 8 12 6 13 12 11 8 5 7 8 6 9 9 7 11 13 17 3 4
6 6 8 11 10 9 10 10 9 4 6 5 3 2 2 3 2 3 8 12 11 13 8 8 9 10 9 5 8 9 10 14 10 8 10 5 4 12 14 14 14 14 10 6 4 1 2 7 5 5 7 11 15 3
11 9 11 12 12 12 9 7 8 4 7 6 5 3 1 2 4 8 9 10 7 12 12 13 12 12 12 11 8 6 5 5 10 11 5 5 2 11 13 15 15 15 14 18 10 8 10 10 9 9 14 15 4 4
7 8 11 11 11 8 9 9 9 9 7 6 5 6 5 3 3 5 9 14 16 13 15 13 14 15 13 8 17 11 7 9 5 1 4 2 10 9 5 4 6 5 2 2 4 4 5 5 14 16 17 10 2 5
9 12 10 14 10 8 8 8 8 8 8 8 8 9 9 7 6 5 24 21 14 9 12 14 12 11 17 12 15 9 8 14 11 11 7 11 10 6 5 8 1 8 6 6 9 8 9 1 6 7 8 10 11 11
10 10 10 10 9 10 8 8 8 10 9 9 9 9 10 9 6 7 14 16 14 14 10 16 12 14 10 14 14 8 6 12 12 10 7 3 1 2 1 4 2 6 12 7 6 6 6 5 4 6 10 10 9 10
Wind_Direction
333 339 342 341 344 344 346 349 1 358 354 355 356 355 355 356 357 358 311 13 24 316 324 356 14 19 349 15 15 330 314 10 350 262 258 275 285 2 7 14 70 71 53 343 15 8 107 6 29 71 30 37 35 14
326 332 337 341 341 342 342 345 354 350 350 350 353 351 350 353 355 0 310 351 344 238 295 308 327 343 330 341 333 325 342 25 30 354 1 338 355 10 16 341 17 44 61 297 64 117 88 53 103 88 62 46 22 10
325 332 336 336 337 337 346 344 344 344 343 346 347 346 345 347 350 354 317 328 341 274 278 228 178 160 76 318 354 347 21 355 63 101 298 307 5 27 357 332 18 48 47 54 40 23 56 80 52 42 43 34 18 4
324 329 338 331 331 343 338 331 332 336 339 337 341 340 339 341 342 339 324 334 337 312 272 120 124 155 124 5 348 3 11 353 22 317 280 297 351 359 329 320 46 301 27 338 309 20 33 40 51 29 2 6 4 345
325 326 323 329 332 330 330 332 331 330 328 329 330 333 335 336 334 326 295 326 33 348 321 302 282 151 175 123 237 246 293 339 313 263 227 246 265 37 353 16 3 37 16 45 80 46 65 358 355 16 20 357 350 333
320 321 322 324 326 329 330 331 331 331 330 323 322 326 330 332 335 347 201 41 17 355 284 293 74 157 113 153 200 186 245 207 244 318 318 327 346 70 261 234 43 51 68 49 43 43 34 6 2 347 324 312 317 311
322 321 327 327 328 328 329 331 330 328 327 321 319 320 320 319 317 292 335 315 341 339 262 281 206 122 152 162 226 217 197 215 194 285 260 289 303 133 210 234 84 67 71 46 23 12 353 334 325 307 312 337 335 322
317 317 320 324 327 329 331 332 331 329 325 319 316 314 312 296 286 263 308 329 326 295 288 280 221 139 175 197 231 207 189 187 190 209 98 255 291 194 228 226 76 60 61 42 8 335 322 334 322 319 334 327 316 310
318 320 324 325 326 330 333 334 334 330 325 321 318 314 315 256 246 45 312 316 260 271 310 293 341 196 161 240 195 11 219 241 281 170 220 223 213 226 128 120 111 134 133 239 273 286 295 279 288 333 334 327 319 311
315 320 322 325 329 332 333 336 338 336 332 325 330 255 274 5 291 295 250 184 214 205 224 254 283 257 187 199 181 125 156 235 219 232 205 210 227 231 119 126 163 180 209 250 309 305 32 356 351 349 336 320 311 303
315 320 323 326 331 335 334 338 341 343 3 342 317 314 320 300 274 230 246 211 186 229 211 236 243 249 22 52 95 288 78 20 307 253 172 220 227 119 136 142 133 80 39 356 347 355 48 34 13 337 330 322 310 300
313 321 322 325 330 334 337 342 339 341 311 305 297 293 276 235 245 255 226 195 216 255 173 228 201 124 33 39 350 6 56 264 249 298 18 253 294 144 153 123 87 65 25 335 333 36 28 11 333 323 312 308 307 302
313 319 319 322 329 331 336 343 342 333 321 299 227 240 225 226 6 234 211 196 225 201 203 194 77 98 68 59 16 89 256 248 329 269 258 58 86 85 83 66 55 38 334 323 16 1 344 326 320 311 297 302 303 304
312 319 320 322 324 329 323 332 338 335 301 257 250 301 225 210 237 209 248 256 300 316 86 84 58 118 164 48 192 206 227 357 248 265 9 12 28 59 47 44 22 314 1 18 22 330 315 323 299 298 294 293 304 302
313 314 314 321 330 331 329 319 325 326 285 275 290 245 234 254 289 279 278 79 291 294 165 94 39 43 352 260 202 218 238 232 228 236 87 287 52 13 351 317 309 328 15 17 320 329 318 308 295 293 299 300 309 310
320 327 293 324 330 335 323 314 313 256 259 250 236 258 273 276 287 291 298 219 281 91 292 88 148 210 233 216 198 222 237 176 46 21 271 276 190 177 220 267 291 327 33 321 333 319 303 294 292 298 309 317 325 328
317 274 277 319 324 329 313 286 246 225 249 237 242 229 250 274 272 279 293 221 208 227 138 71 248 230 208 231 226 14 60 152 194 269 220 237 239 249 257 326 359 14 330 332 319 314 300 308 313 320 333 347 339 342
277 290 307 312 324 335 272 213 257 248 247 251 266 271 274 246 244 199 227 233 217 211 114 184 299 299 252 269 22 138 168 225 210 230 254 249 177 200 305 312 359 344 331 322 311 294 303 335 339 323 355 354 350 359
278 288 301 308 322 308 278 232 242 267 256 258 261 272 280 282 299 312 304 308 292 85 81 63 41 288 258 321 302 268 251 202 238 249 177 144 146 156 293 340 288 296 287 279 283 313 319 0 7 9 9 11 5 5
304 306 299 304 248 259 266 244 218 260 269 293 285 277 285 271 308 3 13 31 42 54 46 258 208 260 259 231 218 223 250 141 296 352 90 109 188 196 122 216 227 282 291 227 198 318 350 1 15 17 10 21 18 3
305 300 340 80 208 230 269 274 248 255 269 282 292 298 260 246 271 82 108 155 147 172 227 237 220 182 101 110 91 69 79 40 47 348 299 23 48 56 155 275 300 305 303 65 93 260 320 281 300 81 42 27 357 11
272 320 267 244 263 244 258 244 251 306 281 269 293 278 269 277 286 241 142 113 252 220 186 130 308 147 89 76 77 92 116 108 189 278 282 208 106 251 262 202 298 296 6 329 348 353 265 342 353 346 145 138 66 14
286 258 229 215 260 228 261 246 244 239 259 267 280 260 253 279 217 149 219 183 148 166 198 209 239 136 125 159 184 164 148 293 124 58 19 322 279 247 233 225 222 202 274 266 297 303 322 342 344 24 311 207 170 145
253 261 238 226 209 263 247 209 227 259 253 238 274 273 216 245 179 224 228 160 165 151 173 168 166 171 196 198 219 177 175 187 138 136 196 270 299 288 237 93 60 295 257 248 212 292 307 332 345 356 335 33 355 172
207 247 202 239 231 241 258 232 211 247 271 333 288 269 252 191 131 321 221 138 151 155 165 187 211 191 179 138 164 166 201 202 196 210 236 221 224 211 247 137 168 302 304 301 240 246 224 293 328 292 298 47 15 36
237 230 201 224 204 208 216 260 224 291 355 15 326 327 354 318 150 226 3 95 142 154 165 187 212 172 158 175 193 200 212 200 219 233 233 196 242 171 113 137 156 251 323 315 46 32 304 299 297 330 102 68 34 19
242 242 208 233 271 278 238 269 257 217 207 249 5 309 174 286 3 331 348 32 132 140 147 193 242 171 180 185 196 205 174 162 215 314 344 355 315 309 133 86 52 12 35 29 30 17 16 9 20 54 58 94 82 30
246 259 234 227 218 234 249 250 266 279 87 235 306 259 281 20 177 278 271 339 119 130 155 217 258 251 190 182 179 216 171 168 187 275 289 289 195 173 125 125 126 115 96 78 68 41 26 25 15 16 19 348 315 114
237 242 243 259 263 234 234 247 261 271 156 167 209 269 161 245 225 224 270 302 156 150 185 208 240 261 183 207 237 242 179 154 195 202 214 246 181 151 160 168 173 175 181 180 165 152 17 37 29 339 319 317 310 65
242 239 255 259 256 258 262 277 292 306 168 185 216 243 326 257 254 262 268 271 205 170 199 220 206 228 244 223 192 110 318 247 190 244 186 161 183 137 162 183 195 209 212 209 221 246 251 250 248 258 285 297 21 39
234 216 221 242 257 256 252 262 257 260 279 286 258 268 269 167 299 335 328 297 285 227 189 217 220 228 260 254 143 179 211 214 207 97 15 9 141 138 142 155 191 155 135 348 292 234 268 275 244 235 241 275 335 335
238 245 242 242 244 236 230 245 260 264 264 266 270 263 248 217 168 204 206 240 245 251 197 216 232 223 229 132 124 113 82 113 145 143 124 89 109 72 64 138 206 178 209 248 279 256 209 201 9 27 10 5 8 4
229 223 231 253 262 264 265 263 262 264 264 252 256 268 279 245 209 182 208 218 226 246 233 193 216 257 186 150 143 144 175 178 170 161 164 140 8 15 303 56 73 7 357 231 253 323 337 130 103 56 44 15 0 352